Location: Shell Point
(30.0571°N, 84.2896°W)
Time: 09:56:19
(UTC-05:00)

Meteor 2-19 Rocket - Visible Passes

Search period start: 03 March 2015 00:00
Search period end: 13 March 2015 01:00
Orbit: 936 x 959 km, 82.5° (Epoch: 02 March)

Date Brightness Start Highest point End Pass type
(mag) Time Alt. Az. Time Alt. Az. Time Alt. Az.
10 Mar 6.6 22:11:33 10° N 22:12:06 13° N 22:12:06 13° N visible
11 Mar 6.5 22:28:18 10° N 22:29:31 17° N 22:29:31 17° N visible
12 Mar 6.4 22:45:21 10° NNW 22:47:01 20° NNW 22:47:01 20° NNW visible
